AEROCUBE 4.5A

Last updated on Sat Apr 13 2024 01:03:32 GMT+0100 (British Summer Time)

1 38767U 12048K 24103.56190311 .00009083 00000+0 53385-3 0 9998 2 38767 64.6604 164.7941 0105766 41.5645 319.3453 15.07571756250561
UTC large
Height (km)
Speed (km/s)
/
Latitude / Longitude
Inclination (degrees)
Orbital Period (minutes)
Azimuth
Elevation
Range (km)
Doppler Factor

Next 0 passes for location: London (51.5072 / 0.1276)

Sorry there are no passes over London.